FW0954 Weather Reports


time (UTC)temp
C
wind
direction
speed
KPH
gust
KPH
rain 1hr
cm
rain 24hr
cm
rain mn
cm
humidity
%
barometer
mb
20260901031001 30 0 0.0 0.0 0.00 0.00 0.00 55 1014.7
20260901030501 31 0 0.0 0.0 0.00 0.00 0.00 55 1014.6
20260901030001 31 0 0.0 0.0 0.00 0.00 0.00 54 1014.6
20260901025002 31 0 0.0 0.0 0.00 0.00 0.00 54 1014.4
20260901024001 31 0 0.0 0.0 0.00 0.00 0.00 53 1014.2
20260901023002 31 166 0.0 1.6 0.00 0.00 0.00 53 1014.1
20260901022501 31 166 0.0 1.6 0.00 0.00 0.00 52 1014.0
20260901022002 31 0 0.0 0.0 0.00 0.00 0.00 52 1013.9
20260901021502 31 0 0.0 0.0 0.00 0.00 0.00 51 1014.0
20260901021002 31 0 0.0 0.0 0.00 0.00 0.00 51 1013.9
20260901020002 32 0 0.0 0.0 0.00 0.00 0.00 50 1013.8
20260901015002 32 0 0.0 0.0 0.00 0.00 0.00 50 1013.7
20260901014501 32 0 0.0 0.0 0.00 0.00 0.00 49 1013.8
20260901014002 32 0 0.0 0.0 0.00 0.00 0.00 49 1013.8
20260901013501 32 0 0.0 0.0 0.00 0.00 0.00 48 1013.7
20260901013002 33 0 0.0 0.0 0.00 0.00 0.00 48 1013.7
20260901012002 33 0 0.0 0.0 0.00 0.00 0.00 47 1013.8
20260901011501 33 161 0.0 1.6 0.00 0.00 0.00 46 1013.7
20260901011002 33 161 0.0 1.6 0.00 0.00 0.00 46 1013.6
20260901010501 34 166 0.0 3.2 0.00 0.00 0.00 46 1013.6
20260901010002 34 167 0.0 3.2 0.00 0.00 0.00 45 1013.6
20260901005501 34 147 0.0 1.6 0.00 0.00 0.00 45 1013.6
20260901005002 35 154 0.0 1.6 0.00 0.00 0.00 44 1013.6
20260901004502 35 148 0.0 4.8 0.00 0.00 0.00 44 1013.6
20260901004001 35 144 0.0 4.8 0.00 0.00 0.00 44 1013.6
20260901003501 35 172 0.0 4.8 0.00 0.00 0.00 44 1013.5
20260901003002 36 170 1.6 6.4 0.00 0.00 0.00 43 1013.5
20260901002501 36 156 1.6 6.4 0.00 0.00 0.00 43 1013.5
20260901002002 36 146 0.0 4.8 0.00 0.00 0.00 43 1013.6
20260901001502 37 159 0.0 4.8 0.00 0.00 0.00 44 1013.5
20260901001001 37 147 0.0 3.2 0.00 0.00 0.00 43 1013.5
20260901000502 37 145 1.6 8.0 0.00 0.00 0.00 43 1013.6
20260901000002 37 156 1.6 9.7 0.00 0.00 0.00 41 1013.6
20260831235501 38 162 1.6 9.7 0.00 0.00 0.00 40 1013.6
20260831235002 38 161 1.6 6.4 0.00 0.00 0.00 38 1013.5
20260831234501 38 172 1.6 8.0 0.00 0.00 0.00 38 1013.6
20260831234002 38 176 3.2 8.0 0.00 0.00 0.00 39 1013.6
20260831233002 38 157 1.6 6.4 0.00 0.00 0.00 38 1013.5
20260831232502 38 176 1.6 4.8 0.00 0.00 0.00 38 1013.5
20260831231502 38 161 0.0 6.4 0.00 0.00 0.00 37 1013.5
20260831231002 38 167 1.6 6.4 0.00 0.00 0.00 37 1013.5
20260831230502 38 135 1.6 6.4 0.00 0.00 0.00 37 1013.5
20260831230001 38 143 1.6 9.7 0.00 0.00 0.00 38 1013.6
20260831225501 38 152 3.2 9.7 0.00 0.00 0.00 38 1013.6
20260831225002 39 151 3.2 8.0 0.00 0.00 0.00 38 1013.6
20260831224002 39 184 3.2 9.7 0.00 0.00 0.00 36 1013.7
20260831223501 39 202 3.2 9.7 0.00 0.00 0.00 35 1013.7
20260831223002 39 208 3.2 12.9 0.00 0.00 0.00 35 1013.7
20260831222502 39 198 3.2 12.9 0.00 0.00 0.00 34 1013.9
20260831222001 40 187 1.6 8.0 0.00 0.00 0.00 34 1013.9
20260831221502 40 184 3.2 12.9 0.00 0.00 0.00 36 1013.8
20260831221002 39 181 3.2 12.9 0.00 0.00 0.00 35 1013.9
20260831220502 39 179 3.2 8.0 0.00 0.00 0.00 35 1013.8
20260831215502 39 190 1.6 9.7 0.00 0.00 0.00 36 1013.9
20260831215002 39 191 4.8 16.1 0.00 0.00 0.00 36 1014.0
20260831214501 38 189 4.8 16.1 0.00 0.00 0.00 36 1014.1
20260831214002 38 195 3.2 16.1 0.00 0.00 0.00 36 1014.1
20260831212502 39 177 1.6 11.3 0.00 0.00 0.00 36 1014.2
20260831212002 39 188 3.2 12.9 0.00 0.00 0.00 36 1014.3
20260831211001 39 173 4.8 11.3 0.00 0.00 0.00 36 1014.3
20260831210502 39 178 4.8 11.3 0.00 0.00 0.00 36 1014.4
20260831210002 39 188 4.8 9.7 0.00 0.00 0.00 36 1014.4
20260831205002 39 166 1.6 11.3 0.00 0.00 0.00 37 1014.6
20260831204502 39 191 3.2 14.5 0.00 0.00 0.00 38 1014.6
20260831204002 39 171 3.2 14.5 0.00 0.00 0.00 38 1014.8
20260831203501 39 94 1.6 8.0 0.00 0.00 0.00 39 1014.8
20260831203002 38 77 1.6 9.7 0.00 0.00 0.00 40 1014.8
20260831202503 38 95 3.2 11.3 0.00 0.00 0.00 42 1015.0
20260831202002 38 104 3.2 11.3 0.00 0.00 0.00 41 1015.1
20260831201502 38 92 1.6 9.7 0.00 0.00 0.00 40 1015.1
20260831201002 39 98 1.6 6.4 0.00 0.00 0.00 40 1015.2
20260831200502 39 158 1.6 12.9 0.00 0.00 0.00 37 1015.2
20260831200002 39 155 3.2 12.9 0.00 0.00 0.00 39 1015.4
20260831195502 38 145 3.2 9.7 0.00 0.00 0.00 40 1015.4
20260831195002 38 165 3.2 11.3 0.00 0.00 0.00 40 1015.5
20260831194502 38 167 1.6 11.3 0.00 0.00 0.00 40 1015.5
20260831194002 38 156 1.6 6.4 0.00 0.00 0.00 40 1015.6
20260831193502 38 139 3.2 8.0 0.00 0.00 0.00 41 1015.7
20260831193003 37 123 1.6 8.0 0.00 0.00 0.00 43 1015.8
20260831192002 36 102 0.0 4.8 0.00 0.00 0.00 44 1015.9
20260831191503 36 98 0.0 4.8 0.00 0.00 0.00 45 1015.9
20260831191002 37 126 0.0 8.0 0.00 0.00 0.00 45 1016.0
20260831190503 37 169 1.6 11.3 0.00 0.00 0.00 44 1016.1
20260831190003 38 176 3.2 11.3 0.00 0.00 0.00 42 1016.0
20260831185502 38 182 4.8 14.5 0.00 0.00 0.00 42 1016.1
20260831185002 38 173 4.8 14.5 0.00 0.00 0.00 43 1016.2
20260831183503 38 138 1.6 8.0 0.00 0.00 0.00 42 1016.2
20260831182502 38 135 1.6 6.4 0.00 0.00 0.00 46 1016.4
20260831181002 37 161 1.6 11.3 0.00 0.00 0.00 44 1016.6
20260831180502 37 168 1.6 8.0 0.00 0.00 0.00 46 1016.7
20260831180002 37 170 3.2 11.3 0.00 0.00 0.00 45 1016.7
20260831175502 37 168 3.2 11.3 0.00 0.00 0.00 45 1016.8
20260831175002 37 185 3.2 14.5 0.00 0.00 0.00 45 1016.8
20260831174503 37 204 0.0 14.5 0.00 0.00 0.00 46 1016.9
20260831174002 37 182 1.6 8.0 0.00 0.00 0.00 47 1017.0
20260831173002 36 181 3.2 11.3 0.00 0.00 0.00 48 1017.1
20260831172502 36 198 3.2 11.3 0.00 0.00 0.00 48 1017.1
20260831172002 36 193 3.2 12.9 0.00 0.00 0.00 49 1017.2
20260831171503 36 182 3.2 12.9 0.00 0.00 0.00 49 1017.3
20260831171002 36 188 3.2 11.3 0.00 0.00 0.00 49 1017.4
20260831170503 36 195 3.2 11.3 0.00 0.00 0.00 49 1017.4
20260831170002 36 183 3.2 11.3 0.00 0.00 0.00 49 1017.3
20260831165503 35 188 4.8 11.3 0.00 0.00 0.00 50 1017.5
20260831165002 35 183 4.8 11.3 0.00 0.00 0.00 50 1017.5
20260831164502 35 175 4.8 14.5 0.00 0.00 0.00 50 1017.5
20260831163502 35 196 3.2 8.0 0.00 0.00 0.00 51 1017.5
20260831163003 35 168 3.2 8.0 0.00 0.00 0.00 52 1017.5
20260831162502 35 176 4.8 12.9 0.00 0.00 0.00 52 1017.5
20260831162002 34 182 4.8 12.9 0.00 0.00 0.00 52 1017.7
20260831161502 34 209 3.2 9.7 0.00 0.00 0.00 53 1017.6
20260831161002 34 230 3.2 8.0 0.00 0.00 0.00 53 1017.6
20260831160503 34 211 3.2 6.4 0.00 0.00 0.00 53 1017.7
20260831160002 33 229 1.6 6.4 0.00 0.00 0.00 54 1017.7
20260831155502 33 191 3.2 11.3 0.00 0.00 0.00 55 1017.6
20260831155003 33 187 3.2 11.3 0.00 0.00 0.00 56 1017.6
20260831154002 33 195 3.2 11.3 0.00 0.00 0.00 57 1017.8
20260831153503 32 173 3.2 11.3 0.00 0.00 0.00 58 1017.7
20260831153003 32 181 3.2 11.3 0.00 0.00 0.00 58 1017.7
20260831152503 32 195 3.2 11.3 0.00 0.00 0.00 60 1017.6
20260831152002 32 220 3.2 11.3 0.00 0.00 0.00 62 1017.7
20260831150002 31 269 1.6 9.7 0.00 0.00 0.00 64 1017.5
20260831145503 31 271 3.2 9.7 0.00 0.00 0.00 65 1017.5
20260831145002 31 261 1.6 8.0 0.00 0.00 0.00 65 1017.4
20260831144503 31 238 1.6 8.0 0.00 0.00 0.00 67 1017.5
20260831144003 30 248 1.6 8.0 0.00 0.00 0.00 69 1017.5
20260831143503 30 248 1.6 8.0 0.00 0.00 0.00 69 1017.4
20260831142503 30 240 0.0 3.2 0.00 0.00 0.00 72 1017.4
20260831142002 29 235 0.0 6.4 0.00 0.00 0.00 73 1017.3
20260831141502 29 200 1.6 6.4 0.00 0.00 0.00 73 1017.3
20260831140502 28 192 1.6 6.4 0.00 0.00 0.00 74 1017.4
20260831140003 28 198 1.6 6.4 0.00 0.00 0.00 76 1017.4
20260831135502 27 191 1.6 6.4 0.00 0.00 0.00 77 1017.4
20260831135002 27 185 1.6 6.4 0.00 0.00 0.00 78 1017.3
20260831134503 27 189 0.0 4.8 0.00 0.00 0.00 79 1017.3
20260831134003 26 164 0.0 4.8 0.00 0.00 0.00 81 1017.1
20260831133502 26 164 0.0 4.8 0.00 0.00 0.00 82 1017.2
20260831132003 25 203 0.0 4.8 0.00 0.00 0.00 83 1016.9
20260831131502 25 204 0.0 4.8 0.00 0.00 0.00 83 1016.9
20260831131003 25 189 0.0 3.2 0.00 0.00 0.00 83 1016.7
20260831130503 25 0 0.0 0.0 0.00 0.00 0.00 83 1016.7
20260831125503 25 166 0.0 1.6 0.00 0.00 0.00 83 1016.6
20260831125003 24 0 0.0 0.0 0.00 0.00 0.00 83 1016.6
20260831124502 24 146 0.0 1.6 0.00 0.00 0.00 83 1016.5
20260831124003 24 157 0.0 4.8 0.00 0.00 0.00 83 1016.4
20260831123503 24 161 0.0 4.8 0.00 0.00 0.00 83 1016.4
20260831123003 24 0 0.0 0.0 0.00 0.00 0.00 82 1016.3
20260831122503 24 203 0.0 3.2 0.00 0.00 0.00 82 1016.3
20260831122002 24 203 0.0 3.2 0.00 0.00 0.00 82 1016.2
20260831121503 24 203 0.0 1.6 0.00 0.00 0.00 82 1016.1
20260831121002 24 202 0.0 3.2 0.00 0.00 0.00 82 1016.1
20260831120503 24 196 0.0 3.2 0.00 0.00 0.00 81 1016.0
20260831120002 24 179 0.0 3.2 0.00 0.00 0.00 81 1016.0
20260831115503 24 171 0.0 3.2 0.00 0.00 0.00 81 1016.0
20260831115003 24 163 0.0 3.2 0.00 0.00 0.00 81 1016.0
20260831114503 24 162 0.0 3.2 0.00 0.00 0.00 81 1015.8
20260831114003 24 158 0.0 1.6 0.00 0.00 0.00 80 1015.9
20260831113503 24 158 0.0 1.6 0.00 0.00 0.00 80 1015.7
20260831113002 24 158 0.0 1.6 0.00 0.00 0.00 79 1015.7
20260831112503 24 158 0.0 1.6 0.00 0.00 0.00 79 1015.6
20260831112003 25 0 0.0 0.0 0.00 0.00 0.00 78 1015.7
20260831111503 25 0 0.0 0.0 0.00 0.00 0.00 77 1015.5
20260831110503 25 0 0.0 0.0 0.00 0.00 0.00 76 1015.5
20260831110004 25 0 0.0 0.0 0.00 0.00 0.00 76 1015.5
20260831105503 25 0 0.0 0.0 0.00 0.00 0.00 75 1015.3
20260831105003 26 0 0.0 0.0 0.00 0.00 0.00 75 1015.4
20260831104503 26 0 0.0 0.0 0.00 0.00 0.00 75 1015.4
20260831104003 26 173 0.0 3.2 0.00 0.00 0.00 75 1015.3
20260831103503 26 175 0.0 3.2 0.00 0.00 0.00 74 1015.4
20260831103003 26 181 0.0 1.6 0.00 0.00 0.00 74 1015.3
20260831102003 26 0 0.0 0.0 0.00 0.00 0.00 73 1015.3
20260831101503 26 0 0.0 0.0 0.00 0.00 0.00 72 1015.4
20260831101003 26 181 0.0 1.6 0.00 0.00 0.00 72 1015.3
20260831100503 26 181 0.0 1.6 0.00 0.00 0.00 72 1015.3
20260831100003 26 181 0.0 3.2 0.00 0.00 0.00 71 1015.2
20260831095503 27 181 0.0 3.2 0.00 0.00 0.00 71 1015.2
20260831095003 27 179 0.0 3.2 0.00 0.00 0.00 70 1015.3
20260831094503 27 181 0.0 4.8 0.00 0.00 0.00 70 1015.4
20260831094003 27 195 1.6 4.8 0.00 0.00 0.00 70 1015.3
20260831093003 27 191 0.0 4.8 0.00 0.00 0.00 70 1015.2
20260831091503 27 183 0.0 4.8 0.00 0.00 0.00 69 1015.1
20260831091003 27 187 1.6 4.8 0.00 0.00 0.00 68 1015.0
20260831090503 27 184 0.0 4.8 0.00 0.00 0.00 68 1015.1
20260831090004 27 169 0.0 3.2 0.00 0.00 0.00 68 1014.9
20260831085503 27 166 0.0 3.2 0.00 0.00 0.00 68 1015.0
20260831085003 27 184 0.0 6.4 0.00 0.00 0.00 67 1015.0
20260831084003 28 177 1.6 6.4 0.00 0.00 0.00 67 1015.0
20260831083503 28 174 0.0 4.8 0.00 0.00 0.00 66 1014.9
20260831083003 28 182 1.6 6.4 0.00 0.00 0.00 66 1014.9
20260831082503 28 181 1.6 6.4 0.00 0.00 0.00 65 1014.8
20260831081503 28 181 1.6 6.4 0.00 0.00 0.00 65 1014.8
20260831081004 28 181 0.0 3.2 0.00 0.00 0.00 65 1014.7
20260831080503 28 206 0.0 4.8 0.00 0.00 0.00 64 1014.7
20260831080004 28 201 1.6 6.4 0.00 0.00 0.00 64 1014.6
20260831075503 28 201 1.6 6.4 0.00 0.00 0.00 64 1014.5
20260831075004 28 213 1.6 6.4 0.00 0.00 0.00 63 1014.4
20260831074503 28 207 1.6 6.4 0.00 0.00 0.00 63 1014.6
20260831074003 28 197 1.6 6.4 0.00 0.00 0.00 63 1014.6
20260831073503 28 199 1.6 8.0 0.00 0.00 0.00 63 1014.5
20260831073003 28 197 3.2 8.0 0.00 0.00 0.00 63 1014.4
20260831072503 28 195 3.2 8.0 0.00 0.00 0.00 63 1014.4
20260831072004 28 188 1.6 6.4 0.00 0.00 0.00 64 1014.4
20260831071503 28 185 1.6 9.7 0.00 0.00 0.00 64 1014.5
20260831070504 28 197 0.0 3.2 0.00 0.00 0.00 65 1014.4
20260831070003 28 198 0.0 3.2 0.00 0.00 0.00 65 1014.4
20260831065503 28 198 0.0 3.2 0.00 0.00 0.00 65 1014.4
20260831065003 28 199 0.0 1.6 0.00 0.00 0.00 65 1014.5
20260831064503 28 0 0.0 0.0 0.00 0.00 0.00 65 1014.4
20260831064004 28 198 0.0 3.2 0.00 0.00 0.00 64 1014.5
20260831063503 28 198 0.0 3.2 0.00 0.00 0.00 64 1014.5
20260831063003 28 199 0.0 4.8 0.00 0.00 0.00 64 1014.5
20260831062504 28 201 0.0 4.8 0.00 0.00 0.00 63 1014.5
20260831062003 28 201 0.0 3.2 0.00 0.00 0.00 63 1014.5
20260831061003 28 0 0.0 0.0 0.00 0.00 0.00 63 1014.5
20260831060004 28 201 0.0 1.6 0.00 0.00 0.00 63 1014.6
20260831055503 28 201 0.0 1.6 0.00 0.00 0.00 63 1014.6
20260831055004 28 0 0.0 0.0 0.00 0.00 0.00 62 1014.6
20260831054503 28 0 0.0 0.0 0.00 0.00 0.00 62 1014.6
20260831054004 29 202 0.0 1.6 0.00 0.00 0.00 61 1014.6
20260831053504 29 202 0.0 1.6 0.00 0.00 0.00 61 1014.6
20260831053003 29 202 0.0 1.6 0.00 0.00 0.00 61 1014.5
20260831052503 29 0 0.0 0.0 0.00 0.00 0.00 60 1014.5
20260831052003 29 0 0.0 0.0 0.00 0.00 0.00 60 1014.4
20260831051504 29 201 0.0 1.6 0.00 0.00 0.00 60 1014.3
20260831051004 30 201 0.0 1.6 0.00 0.00 0.00 59 1014.3
20260831050500 30 0 0.0 0.0 0.00 0.00 0.00 59 1014.3
20260831050001 30 0 0.0 0.0 0.00 0.00 0.00 59 1014.3
20260831045500 30 202 0.0 1.6 0.00 0.00 0.00 59 1014.3
20260831045000 30 202 0.0 3.2 0.00 0.00 0.00 59 1014.3
20260831044459 30 202 0.0 3.2 0.00 0.00 0.00 59 1014.3
20260831043959 30 201 0.0 1.6 0.00 0.00 0.00 59 1014.3
20260831043500 30 201 0.0 1.6 0.00 0.00 0.00 58 1014.3
20260831043000 30 0 0.0 0.0 0.00 0.00 0.00 58 1014.2
20260831042000 30 202 0.0 1.6 0.00 0.00 0.00 57 1014.2
20260831041500 30 202 0.0 1.6 0.00 0.00 0.00 57 1014.3
20260831041000 30 202 0.0 3.2 0.00 0.00 0.00 57 1014.3
20260831040501 30 202 0.0 3.2 0.00 0.00 0.00 57 1014.3
20260831040000 30 195 0.0 4.8 0.00 0.00 0.00 57 1014.1
20260831035500 30 181 0.0 4.8 0.00 0.00 0.00 57 1014.1
20260831035000 30 168 0.0 1.6 0.00 0.00 0.00 57 1014.1
20260831034500 30 168 0.0 3.2 0.00 0.00 0.00 57 1014.1
20260831034000 30 168 0.0 3.2 0.00 0.00 0.00 56 1014.0
20260831033500 30 168 0.0 1.6 0.00 0.00 0.00 56 1014.1
20260831032959 30 168 0.0 1.6 0.00 0.00 0.00 56 1014.0
20260831032500 31 168 0.0 1.6 0.00 0.00 0.00 56 1014.0
20260831032000 31 168 0.0 1.6 0.00 0.00 0.00 55 1014.0
20260831031500 31 168 0.0 3.2 0.00 0.00 0.00 55 1014.1